Погода в Пурнеме

Россия / Архангельская область     64°22′52″N   37°25′55″E
темп.,
°C
ветер,
м/с
пор.,
м/с
влажн.,
%
обл.,
%
осадки,
мм/ч
давл.,
гПа
погр.,
м
6 марта, сб
сб600:00−15сз23951 0.0 100958
03:00−15зсз23951 0.0 100929
06:00−16юз239823 0.0 100844
09:00−14юз359753 0.1 1007188
12:00−12ююз3694100 0.1 1005259
15:00−10ю4894100 0.1 1002339
18:00−10ю41193100 0.0 999374
21:00−10ююв51293100 0.0 995507
7 марта, вс
вс700:00−10юв61293100 0.2 992540
03:00−10вюв51293100 0.7 991616
06:00−11в51192100 0.7 990534
09:00−12в51093100 1.2 993444
12:00−11всв61190100 0.2 996489
15:00−11св61290100 0.3 999509
18:00−11св71489100 0.0 1002606
21:00−15св71392100 0.1 1005490
8 марта, пн
пн800:00−19св61296100 0.1 1007364
03:00−22ссв61297100 0.1 1009298
06:00−23ссв61197100 0.0 1011313
09:00−23ссв51095100 0.0 1012334
12:00−20ссв599199 0.0 1013339
15:00−19ссв598686 0.0 1014414
18:00−23ссв410921 0.0 1015376
21:00−25ссв4109330 0.0 1017285
9 марта, вт
вт900:00−27ссв379678 0.0 1018166
03:00−27ссв359577 0.0 1018126
06:00−27ссв23934 0.0 101968
09:00−23ссз128743 0.0 1019144
12:00−19з1290100 0.3 1020339
15:00−17зсз1385100 0.4 1021546
18:00−21сз0198100 0.0 102120
21:00−23з119984 0.1 102220
10 марта, ср
ср1000:00−21з239267 0.0 102283
03:00−22з239683 0.0 102283
06:00−20з389493 0.0 1022191
09:00−17з4108696 0.0 1021269
12:00−15з4880100 0.0 1021307
15:00−14з5107985 0.0 1020354
18:00−14з4127992 0.0 1019459
21:00−13зюз4128696 0.0 1018527